Location: Larrial
(48.2758°N, 4.5331°W)
Time: 03:07:00
(UTC+00:00)

Nadezhda 3 Rocket - Pass Details

Date: 09 April 2020
Orbit: 956 x 1000 km, 82.9° (Epoch: 26 May)

Event Time Altitude Azimuth Distance (km) Brightness Sun altitude
Exits shadow 21:41:24 51° 140° (SE) 1,227 4.1 -23.9°
Maximum altitude 21:42:41 62° 93° (E) 1,108 4.0 -24.0°
Drops below altitude 10° 21:48:52 10° 15° (NNE) 2,742 6.7 -24.7°
Sets 21:51:24 0° 12° (NNE) 3,687 7.5 -25.0°
